Theta_e
313 314 315 314 313 313 312 315 311 312 315 322 331 331 331 335 337 338 339 341 348 350 353 356 359 363 365 362 368 367 372 370 374 374 377 376 376 379 375 376 369 372 371 372
311 313 313 312 313 314 314 315 316 315 315 324 322 333 333 334 333 333 336 338 342 348 351 353 356 359 361 362 366 368 370 366 374 374 374 375 375 377 374 374 373 371 371 369
307 313 314 308 312 314 315 320 319 315 317 320 324 330 332 332 334 335 337 339 341 343 346 351 351 358 357 361 367 369 368 369 369 373 370 374 373 372 367 363 359 362 357 359
307 311 301 315 321 322 318 321 323 322 319 316 324 333 334 335 335 337 338 337 340 339 344 347 348 349 357 361 364 358 358 358 364 365 363 364 363 361 361 363 353 358 353 356
309 307 311 314 319 319 320 318 321 320 321 323 330 333 334 338 340 340 339 338 338 339 341 350 348 353 354 352 358 361 358 358 361 362 362 362 361 363 364 363 363 361 364 363
311 307 304 314 319 326 325 313 321 324 325 328 330 323 330 339 340 340 339 338 338 341 342 342 349 348 350 349 352 355 359 360 363 364 364 363 362 362 365 363 361 359 361 363
311 308 311 320 323 323 310 315 322 325 326 324 329 334 339 342 342 341 340 338 339 341 341 341 345 345 350 349 349 357 360 362 364 364 364 363 365 367 366 362 362 360 357 357
311 310 307 325 322 317 328 331 326 320 323 326 338 339 340 340 341 340 338 336 339 342 343 344 347 351 351 353 359 363 364 363 362 365 359 358 364 365 363 362 357 355 355 353
314 318 329 328 328 330 335 334 332 323 330 338 338 339 340 339 340 339 339 339 339 340 344 348 353 355 354 358 363 363 362 361 361 362 359 363 361 361 355 357 351 351 349 348
320 326 325 327 328 329 331 334 336 338 339 338 339 341 340 339 339 339 340 340 342 344 346 351 357 358 359 361 362 362 360 361 362 359 361 363 354 351 349 344 344 347 342 341
322 328 328 326 329 330 331 333 337 339 339 338 340 341 340 340 342 340 342 344 346 350 352 354 359 361 362 363 364 362 361 359 358 354 354 358 360 352 353 349 341 345 343 345
318 332 332 329 329 332 330 329 331 333 335 337 338 338 339 339 341 345 346 349 351 353 355 355 357 360 365 365 365 362 356 349 349 353 350 352 355 346 314 317 313 311 308 321
327 333 331 331 332 333 332 330 331 331 331 332 333 333 334 336 345 339 348 349 353 355 353 357 357 359 363 364 363 360 356 359 356 346 346 353 354 351 348 325 312 308 306 305
329 331 328 330 329 332 332 332 332 332 332 333 332 333 332 335 342 345 348 350 350 351 353 351 355 358 360 359 363 360 361 330 349 348 348 354 353 347 345 339 336 335 312 312
326 327 328 328 329 329 332 331 329 330 331 333 334 333 334 344 344 348 349 347 348 348 351 353 351 356 356 355 356 358 356 350 353 349 354 348 350 347 345 345 344 343 335 314
327 326 326 325 328 329 329 328 327 328 331 333 335 336 343 347 348 348 348 350 348 344 352 356 355 353 357 357 357 351 353 340 338 346 346 347 346 346 341 346 346 344 344 341
325 324 325 325 326 328 328 329 329 330 332 336 340 341 345 345 345 347 347 345 353 356 353 358 354 362 357 360 358 348 349 345 340 342 343 344 339 341 343 343 341 342 342 337
330 330 330 330 330 330 331 332 330 333 334 339 343 344 345 346 348 350 351 351 353 353 354 356 357 357 357 355 357 350 346 344 347 346 346 346 340 340 343 344 342 340 337 338
332 333 332 331 333 333 333 333 333 336 342 346 344 343 347 348 350 353 351 352 354 354 351 353 341 347 355 343 339 342 339 337 338 343 347 335 341 338 341 343 340 341 341 341
331 332 333 332 333 334 334 336 336 337 340 343 347 346 347 348 352 353 356 352 351 348 353 346 348 348 350 345 336 331 331 332 333 338 346 341 338 341 340 329 336 338 343 342
331 332 333 334 334 336 336 338 338 338 342 341 348 354 355 353 355 358 356 346 354 355 346 340 347 345 345 342 338 332 330 332 338 341 342 341 341 338 339 338 339 339 338 343
332 332 333 335 336 336 338 338 339 342 345 348 348 350 352 353 354 356 356 351 350 327 342 343 341 337 338 337 334 330 332 332 336 341 342 340 341 338 336 337 336 337 337 341
332 333 334 335 336 337 338 338 339 341 342 347 349 349 346 341 344 341 342 352 349 335 345 342 333 324 324 335 335 335 334 335 336 338 342 345 344 341 339 338 341 338 336 337
331 331 331 333 333 334 334 338 337 340 343 345 346 352 344 340 340 341 342 332 333 330 340 338 328 321 323 339 336 334 338 338 342 345 345 320 342 342 337 338 337 337 334 333
328 328 327 328 328 329 332 333 333 336 341 346 347 349 349 346 344 342 343 341 324 332 342 320 320 319 336 339 336 335 338 338 341 342 338 337 335 338 338 336 336 336 337 339
325 324 325 326 325 326 326 327 328 331 331 331 335 338 339 342 342 341 345 336 344 334 343 333 333 331 338 337 334 334 336 335 333 334 334 335 336 336 332 332 333 335 336 336
322 316 321 322 324 324 324 323 325 325 326 329 330 334 337 338 340 336 331 341 343 342 342 340 337 332 338 337 335 335 335 335 329 335 335 335 337 336 331 331 334 335 335 338
Wind_Speed
2 12 18 18 8 4 7 5 5 12 11 3 12 13 12 13 12 12 11 11 10 8 6 5 5 5 4 2 3 2 2 4 3 5 3 3 5 3 5 6 9 9 7 6
4 10 18 20 13 7 10 5 20 14 10 17 21 15 13 12 11 11 11 11 10 9 8 7 6 5 4 3 5 4 4 5 3 1 4 3 5 3 3 5 4 3 3 2
3 5 19 13 12 7 9 20 27 16 8 6 14 9 14 14 12 11 11 10 9 10 8 8 7 6 6 3 5 3 4 5 6 4 3 1 5 4 5 6 5 5 5 5
9 13 5 7 4 8 9 22 21 26 30 28 25 14 15 14 13 12 11 9 10 10 9 7 8 7 6 5 6 5 6 5 4 6 6 5 4 2 3 3 3 3 4 4
9 9 6 14 4 2 4 13 25 26 28 29 24 18 16 16 14 13 12 10 10 10 8 7 8 6 6 6 5 6 5 4 4 4 4 3 3 2 1 4 4 5 5 6
7 11 7 8 12 9 3 3 13 18 21 27 21 13 11 16 16 14 12 10 10 12 13 8 8 6 9 7 8 6 5 5 4 3 3 3 4 2 2 3 5 4 6 5
7 7 10 9 6 6 7 4 5 22 17 37 11 6 18 15 14 12 11 10 7 8 10 6 9 9 8 8 7 5 5 4 3 2 2 2 1 1 2 3 4 5 7 7
9 12 9 8 4 6 7 14 13 25 16 29 14 17 17 14 13 13 12 6 8 8 8 8 6 9 8 6 5 3 3 4 3 1 3 4 3 3 4 4 5 6 7 6
11 6 7 6 7 4 10 10 18 36 36 16 16 15 13 11 11 10 10 4 8 11 9 8 4 6 9 4 4 3 4 3 2 3 2 1 4 4 5 6 5 4 4 3
1 10 6 9 6 4 4 7 5 7 15 13 16 18 15 13 11 10 10 7 6 10 10 7 5 4 8 5 4 3 3 2 3 3 1 2 4 3 4 6 6 5 5 6
1 9 6 2 2 5 4 5 11 8 7 9 13 15 12 11 10 9 9 9 8 7 5 7 5 1 5 6 4 3 3 4 4 4 5 4 2 2 2 2 1 1 3 3
2 8 5 6 2 5 4 3 4 7 8 11 11 8 8 8 7 10 10 10 7 5 5 3 2 2 2 5 3 4 5 4 3 2 5 4 1 4 6 7 5 5 4 3
5 6 3 3 10 4 6 2 6 5 3 5 3 4 3 6 8 11 10 8 6 4 5 4 2 2 3 5 4 4 5 4 2 2 4 2 2 4 4 3 1 2 3 3
7 7 1 4 4 4 5 4 5 1 6 7 4 3 1 3 10 9 8 7 7 5 4 2 3 6 3 3 1 2 4 3 4 4 5 1 3 5 6 2 5 4 7 6
1 3 8 9 7 7 6 4 5 5 6 8 6 1 4 12 9 8 8 7 7 7 5 4 3 5 2 4 1 3 3 4 3 5 1 1 3 6 4 4 2 7 4 3
6 8 7 5 9 5 4 6 5 7 7 7 9 4 9 10 7 9 7 5 7 5 5 4 3 2 4 0 3 6 6 2 2 4 4 6 7 3 4 3 2 1 3 7
12 11 8 6 6 6 8 9 6 7 8 7 10 7 6 9 9 9 7 10 6 4 3 2 3 5 2 4 4 6 2 5 7 4 6 6 4 4 3 2 3 4 5 3
7 7 7 7 6 3 5 7 9 8 6 9 11 9 8 6 6 9 7 3 9 7 5 4 5 4 5 5 4 5 6 4 7 7 2 2 5 4 4 1 4 2 4 4
8 5 4 2 3 4 4 5 5 5 6 7 11 9 8 8 6 7 8 6 6 5 6 7 9 4 3 2 1 5 7 8 5 3 3 3 3 5 8 3 4 4 3 7
10 7 5 6 6 6 6 5 6 5 4 4 6 9 9 8 7 8 7 8 7 6 5 11 11 7 7 5 4 6 8 8 4 1 3 2 6 5 4 2 4 5 2 4
9 8 6 7 7 8 8 6 5 5 5 3 3 3 5 8 7 6 7 7 9 7 4 13 8 6 7 6 7 8 9 6 4 3 4 5 6 6 6 4 4 4 4 1
8 6 7 5 4 5 5 4 5 4 5 5 4 5 5 5 7 7 7 7 7 16 9 8 8 5 2 11 7 7 7 3 3 4 4 5 4 4 5 5 4 4 4 3
6 5 4 4 5 3 4 6 5 5 5 5 5 4 6 8 8 8 9 12 9 10 10 9 10 17 15 5 4 6 7 4 4 4 3 1 1 3 4 5 3 3 6 5
7 4 2 2 4 3 5 4 4 5 2 2 5 5 6 8 8 9 7 8 15 16 11 7 11 18 14 7 6 7 6 4 3 2 1 0 2 2 4 5 4 4 3 4
5 4 4 5 3 6 4 2 3 5 6 6 5 5 8 7 7 9 8 6 16 18 12 12 16 15 10 8 7 8 6 5 5 3 4 4 4 3 4 5 5 5 4 3
5 5 4 2 3 3 2 2 3 4 4 5 5 6 7 6 8 8 8 11 8 12 10 10 10 10 10 10 9 9 7 7 7 6 6 5 6 5 5 6 6 6 6 5
5 4 4 5 5 4 1 6 3 4 4 4 5 6 8 10 11 10 9 10 10 11 10 11 11 11 10 10 9 9 8 8 8 8 7 8 3 2 4 5 5 5 5 3
Wind_Direction
226 280 302 279 306 175 260 85 105 165 125 193 135 133 128 125 129 126 113 103 107 103 94 75 46 29 7 234 324 258 197 321 217 216 231 282 245 321 247 212 209 216 221 238
268 251 263 261 233 275 317 299 102 159 63 15 331 131 136 129 122 116 112 109 115 120 113 99 106 99 77 41 15 316 154 209 233 284 340 347 331 313 299 307 300 325 323 322
288 242 281 232 256 247 238 102 133 134 157 356 294 193 147 144 140 129 117 106 92 83 69 76 75 57 64 62 47 58 61 42 38 62 33 337 5 4 12 44 348 356 348 345
201 73 323 344 34 353 6 136 123 136 146 171 225 177 160 150 143 133 127 128 131 131 137 115 84 90 99 82 97 91 72 56 60 66 52 40 33 40 350 7 328 324 297 277
326 185 238 199 138 25 44 89 133 149 168 189 218 151 150 145 154 140 126 130 122 112 105 104 119 139 113 99 54 69 90 106 141 153 166 175 200 264 278 273 276 285 263 277
288 329 305 61 289 356 195 169 338 52 7 236 149 164 156 152 138 140 136 127 128 145 147 131 158 116 112 88 103 97 86 79 69 50 33 34 30 59 341 301 281 296 306 304
252 250 293 130 64 324 271 196 181 76 68 276 178 197 141 140 138 141 122 125 107 98 106 129 83 93 73 100 98 97 113 120 122 115 134 93 90 258 301 292 301 291 291 296
264 285 253 36 2 33 93 152 160 108 221 250 121 124 132 139 138 120 114 148 142 132 117 100 104 111 103 113 124 120 104 88 87 53 348 69 2 337 329 319 293 274 270 287
246 79 86 59 104 42 50 121 166 153 208 196 125 124 129 133 127 134 142 154 92 113 93 99 70 95 115 133 124 143 121 129 134 70 3 213 234 242 258 218 254 343 347 26
157 119 94 57 43 47 189 139 205 146 125 142 146 149 149 142 155 162 155 140 102 90 107 108 126 119 124 151 160 183 132 156 186 160 259 319 322 21 8 19 355 10 25 2
121 113 88 84 38 92 74 28 31 53 124 150 146 144 142 161 175 167 125 115 112 111 132 132 114 95 113 137 167 204 188 232 227 185 201 206 221 35 42 86 145 345 46 349
321 129 127 118 137 139 109 99 58 41 47 45 41 74 106 94 104 109 110 93 96 98 118 80 111 154 188 134 157 253 230 236 264 338 194 187 303 151 66 73 70 31 55 40
139 128 183 121 164 193 152 188 131 124 106 105 71 349 73 139 107 104 113 121 134 155 107 116 107 128 200 136 169 226 254 268 315 272 274 24 283 283 193 174 7 38 315 294
75 98 158 226 161 168 208 205 123 216 154 148 89 31 310 125 123 121 132 130 119 118 108 96 74 106 97 187 166 251 280 227 265 271 282 76 3 337 294 131 183 176 221 230
303 205 224 208 226 211 117 256 262 203 225 133 111 148 213 116 128 129 115 130 131 153 139 135 160 117 106 321 8 265 271 280 236 257 126 278 268 263 284 35 62 158 138 202
213 218 239 285 173 169 185 229 243 247 218 150 123 155 132 129 144 127 144 140 146 169 156 161 133 156 157 151 258 246 213 212 257 314 298 233 242 221 33 26 324 316 263 136
220 211 213 233 225 224 232 250 246 241 193 153 134 149 156 154 152 147 172 161 145 115 129 164 190 115 196 205 258 284 120 173 221 242 269 314 348 352 51 318 291 232 244 79
207 205 207 190 184 171 242 247 231 212 214 159 139 149 166 175 172 156 170 164 142 167 182 145 174 193 199 246 219 289 305 248 194 234 105 341 360 342 279 178 274 282 132 176
203 180 201 194 201 219 264 279 238 255 190 149 142 156 169 172 180 167 175 190 165 183 215 162 151 176 231 133 323 274 276 268 277 228 104 85 275 255 270 39 313 253 223 173
192 194 231 248 235 234 229 231 266 264 221 213 164 163 170 176 182 184 186 189 204 218 219 161 168 187 215 178 201 266 274 281 297 316 92 325 291 330 341 238 293 298 291 132
201 210 221 228 230 220 228 237 233 235 239 244 226 209 181 179 182 192 187 204 204 197 201 157 191 190 188 194 209 242 251 258 195 280 179 220 235 264 264 306 250 287 331 148
190 197 213 191 202 216 221 246 192 233 259 275 260 220 201 219 194 202 230 229 220 164 167 186 202 173 217 173 210 254 269 266 267 218 184 235 280 324 314 334 327 8 329 344
157 162 153 160 220 167 149 231 203 203 227 223 253 237 217 223 206 215 214 207 241 181 185 200 178 150 154 196 227 268 284 216 247 274 259 295 320 285 314 313 39 347 297 278
125 117 166 158 235 201 218 191 349 63 50 313 297 286 255 239 242 256 260 207 185 171 211 189 168 163 168 193 206 241 221 261 270 264 323 161 307 276 299 310 294 273 262 256
147 170 190 202 214 216 182 191 240 232 219 225 236 237 239 245 269 278 282 289 168 173 189 161 164 173 185 196 207 225 217 189 216 231 254 248 267 306 303 300 311 315 334 355
187 214 149 117 325 342 297 256 261 23 1 307 300 301 284 243 226 236 261 279 174 187 184 157 175 184 205 216 213 226 229 204 176 197 216 233 237 240 260 267 278 291 291 272
198 236 194 215 209 222 333 47 25 298 267 322 316 320 326 321 314 320 279 244 185 197 202 164 178 189 207 225 214 232 228 212 215 216 197 212 235 299 297 290 285 270 280 305